Simultaneous Nadir Overpasses (SNOs) Predictions

Prediction of SNOs between AQUA and METOP-B Satellite Orbit:

Table of predicted SNOs for the next 14.0 days since TLE Epoch: 8/28/2020
Index Date (AQUA) Time (AQUA) Lat,Lon (AQUA) SZA (AQUA ) Date (METOP-B) Time (METOP-B) Lat,Lon (METOP-B) SZA (METOP-B ) Distance(km) Time Diff (sec)
1 08/28/2020 22:12:44 73.90,-159.05 64.62 08/28/2020 22:13:30 73.93,-159.03 64.64 3.10 46
2 08/31/2020 16:07:51 73.11, -66.23 64.77 08/31/2020 16:06:46 73.08, -69.22 64.84 96.83 65
3 08/31/2020 16:57:30 -73.83, 99.91 114.47 08/31/2020 16:57:12 -73.86, 99.88 114.44 3.26 18
4 08/31/2020 17:46:59 73.89, -92.60 65.62 08/31/2020 17:47:51 73.91, -92.67 65.63 2.55 52
5 09/03/2020 11:42:10 73.32, -0.22 66.01 09/03/2020 11:41:02 73.31, -2.31 66.07 66.66 68
6 09/03/2020 12:31:46 -73.87, 166.25 113.40 09/03/2020 12:31:33 -73.84, 166.25 113.43 3.62 13
7 09/03/2020 13:21:14 73.95, -26.28 66.70 09/03/2020 13:22:10 73.93, -26.19 66.68 2.96 56
8 09/06/2020 07:16:28 73.54, 65.77 67.27 09/06/2020 07:15:18 73.49, 64.51 67.27 40.36 70
9 09/06/2020 08:06:00 -73.87,-127.31 112.37 09/06/2020 08:05:52 -73.87,-127.27 112.36 1.34 8
10 09/06/2020 08:55:28 73.90, 40.26 67.68 09/06/2020 08:56:31 73.91, 40.16 67.69 3.45 63
11 09/09/2020 02:50:47 73.75, 131.74 68.56 09/09/2020 02:49:34 73.71, 131.44 68.53 10.52 73
12 09/09/2020 03:40:15 -73.87, -60.87 111.31 09/09/2020 03:40:13 -73.85, -60.90 111.33 2.04 2
